User: anonymous   Login
Location: Warszawa
(52.2500°N, 21.0000°E)
Time: 00:20:59
(UTC+02:00)
Language:

PRISM - Orbit

View from above orbital plane
View from above orbital plane
View from above satellite
View from above satellite

Ground track
Ground track

The orbit data is extracted from the following two-line orbital elements,

1 33493U 09002B   24114.67287047  .00034146  00000-0  17468-2 0  9992
2 33493  98.2111 157.7010 0013768  79.2255 281.0524 15.16477722830771
Epoch (UTC): 23 April 2024 16:08:56
Eccentricity: 0.0013768
inclination: 98.2111°
perigee height: 507 km
apogee height: 526 km
right ascension of ascending node: 157.7010°
argument of perigee: 79.2255°
revolutions per day: 15.16477722
mean anomaly at epoch: 281.0524°
orbit number at epoch: 83077

The dashed part of the orbit path shows where the satellite is in the earth's shadow,  

DLR